Voltar ao catálogo

CZ-2D DEB

AtivoSSO
NORAD 44612·DEBRIS·🇨🇳 China

Lançado Oct 9, 2017 de Jiuquan Satellite Launch Center

Loading…

Próximas Passagens (próximas 24 horas)

TLE

AtualizadoSource: Space-Track

Época: Sep 14, 2026, 11:10 UTC

1 44612U 17060E   26257.46562934  .00002803  00000-0  26075-3 0  9998
2 44612  97.5943 258.5081 0010953 148.8215 211.3658 14.95060348480224

Acompanhe CZ-2D DEB em tempo real com AllMySat

Download on the App Store